Location: Breux
(46.3269°N, 3.2993°E)
Time: 02:06:31
(UTC+00:00)

Terra - Pass Details

Date: 09 April 2020
Orbit: 701 x 703 km, 98.2° (Epoch: 05 June)

Event Time Altitude Azimuth Distance (km) Brightness Sun altitude
Exits shadow 20:31:23 22° 66° (ENE) 1,537 3.3 -20.3°
Maximum altitude 20:31:35 22° 62° (ENE) 1,535 3.3 -20.3°
Drops below altitude 10° 20:35:10 10° 13° (NNE) 2,181 4.6 -20.8°
Sets 20:37:52 0° 359° (N) 3,105 5.7 -21.1°
